sat.trackr.live / text

‹ back to catalog

THEMIS E

NORAD 30798 · 2007-004E

PAYLOAD ACTIVE UNKNOWN

§ Identity

Operator
Country
US
Launch date
2007-02-17
Launch site
AFETR
Launch vehicle
Mass (kg)
RCS (m²)
0.63

External: N2YO · Heavens-Above · Gunter

§ Orbital elements

Epoch: 2026-09-03T10:41:28.512096Z

Period
1,639.35 min
Inclination
7.0308°
Eccentricity
0.8422175
Mean motion
0.87839853 rev/d
Perigee alt
888.5 km
Apogee alt
78,464.7 km
Semi-major
46,054.7 km
B*
0.0000e+0
RAAN
92.3768°
Arg perigee
230.7884°
Mean anomaly
16.3723°
Rev number
6,660

§ Raw data

THEMIS E1 30798U 07004E   26246.44546889 -.00000543  00000+0  00000+0 0  99972 30798   7.0308  92.3768 8422175 230.7884  16.3723  0.87839853 66604

JSON: /api/v1/satellites/30798 · /tle

For live sub-satellite position, see the globe view (requires WebGL).

§ Visibility from observer

Set your observer location to see the next 7 days of passes ≥ 10°. The values pass through the URL so the page stays shareable.

No JS? Fill the form by hand. The geolocation button needs JavaScript.